Wetbulb
47.52 43.02 40.81 44.33 45.17 41.25 39.41 37.05 36.99 38.85 43.20 41.51 41.38 40.33 41.96 44.81 43.13 42.70 41.82 43.09 50.14 53.54 56.63 57.04 58.03 58.53 58.69 58.20 58.74 59.89 60.50 61.76 61.66 59.91 56.02 55.11 56.35 56.04 55.19 55.93 57.01 57.47 57.85 57.75
44.09 39.95 43.96 46.69 46.01 43.82 40.15 37.09 35.88 40.40 42.61 40.88 40.66 40.60 42.15 43.16 44.51 44.90 45.22 42.40 43.05 47.43 52.97 55.86 57.11 57.47 58.33 58.85 58.58 59.20 59.91 60.89 61.35 62.06 60.53 57.23 56.77 55.24 56.45 56.07 56.50 57.55 57.64 57.70
40.56 41.52 45.34 44.66 43.34 41.66 39.63 38.28 37.36 38.69 38.80 39.27 37.11 37.85 39.89 42.50 44.88 45.49 45.78 46.96 45.77 45.56 46.49 52.86 55.98 57.16 57.99 58.56 58.25 58.94 59.67 60.34 60.99 61.77 59.24 56.45 55.93 55.29 54.84 54.66 55.72 57.30 58.09 58.13
41.98 44.78 43.52 42.98 42.03 42.90 37.78 42.23 42.40 41.06 36.92 33.68 38.16 30.95 38.28 40.31 42.90 43.84 46.70 46.22 47.18 45.30 46.16 49.64 54.61 56.49 57.54 58.57 59.58 59.27 59.64 59.95 60.47 61.05 60.34 59.70 58.76 56.66 57.55 57.72 56.96 56.79 58.19 58.41
40.40 41.20 41.12 40.24 41.25 43.56 39.32 44.37 43.26 40.19 35.58 35.65 34.67 35.92 35.85 37.98 38.83 42.36 45.79 47.59 48.07 47.64 46.67 47.69 52.84 56.39 57.92 58.90 59.26 59.26 59.33 59.56 59.96 60.02 60.61 59.88 59.30 59.43 58.58 56.49 55.81 56.78 57.50 58.55
42.20 43.91 44.38 42.69 44.20 44.72 43.56 41.23 40.06 37.50 36.57 32.52 35.55 35.37 32.91 36.88 39.59 42.06 44.73 45.78 47.46 47.56 46.09 47.25 50.23 54.89 57.03 58.30 58.92 59.05 58.63 59.16 59.77 59.55 59.75 59.62 59.37 59.37 57.21 56.49 56.72 56.65 57.52 57.99
40.65 40.78 42.58 44.14 41.16 44.22 42.91 39.43 32.02 30.83 30.77 28.12 32.63 32.20 36.95 39.24 42.22 43.74 45.93 46.01 45.03 46.28 45.28 45.40 44.94 50.63 54.58 55.68 57.96 57.64 57.38 57.89 59.20 59.17 59.29 59.32 59.21 59.23 58.78 57.79 57.10 56.60 56.60 57.30
33.71 31.60 40.12 44.08 41.40 38.57 39.89 38.60 28.71 23.61 25.01 26.24 31.67 30.40 35.12 42.78 46.16 47.01 44.27 44.57 44.18 44.48 44.26 44.45 45.01 47.70 52.96 55.22 57.30 57.80 56.34 56.21 57.69 58.61 58.90 59.27 58.92 58.61 58.45 57.98 57.87 57.41 57.56 57.93
35.12 34.25 41.28 42.53 42.64 43.20 39.70 36.53 37.63 28.59 18.13 23.22 28.44 31.58 36.79 39.39 40.30 41.02 41.42 43.28 44.19 43.92 42.49 42.96 43.64 43.10 48.27 53.00 55.16 56.95 57.55 57.06 55.30 56.24 57.66 57.81 58.41 57.96 57.74 57.55 57.12 57.93 57.99 57.96
39.21 33.20 39.57 41.57 43.24 42.56 41.43 43.01 33.83 31.07 19.73 19.39 25.64 26.69 31.83 34.48 41.34 43.34 41.33 41.58 44.88 42.46 40.84 39.88 41.00 41.78 42.19 47.75 52.20 54.45 56.67 57.75 58.13 55.42 55.43 55.88 56.33 57.19 57.69 56.70 56.55 57.50 58.08 57.04
40.94 37.53 34.13 40.00 38.62 38.13 38.17 38.08 37.22 35.69 28.98 24.29 21.10 27.23 34.54 39.77 40.77 41.76 43.48 41.32 41.04 41.29 40.75 39.44 39.29 38.88 40.08 44.29 48.82 51.66 53.32 54.26 55.09 55.84 56.54 54.74 54.26 54.38 55.24 56.34 56.58 57.19 57.14 56.38
41.10 37.55 31.86 36.20 41.61 42.25 42.17 38.71 39.17 33.45 29.55 27.98 26.49 30.04 36.51 38.01 39.21 39.13 40.85 40.97 39.39 39.18 38.85 39.13 39.19 39.54 39.49 39.77 40.56 46.07 48.51 50.48 51.81 53.30 54.61 55.48 55.60 54.80 54.75 55.37 56.44 57.67 58.39 58.41
40.24 34.97 29.81 32.35 37.12 38.30 38.94 40.25 40.84 39.79 31.93 30.79 27.88 32.06 35.78 33.35 34.93 36.69 39.63 39.12 39.19 38.84 38.40 38.89 38.72 39.16 39.46 39.54 39.92 39.83 39.80 40.25 41.25 44.19 48.08 49.53 50.68 51.43 52.57 54.65 55.74 55.48 56.20 57.16
42.29 34.89 32.00 28.80 32.23 37.63 35.92 38.66 39.96 39.02 33.24 33.37 33.01 35.44 34.04 34.36 34.83 35.22 37.01 37.88 37.95 38.37 39.24 38.61 38.65 39.23 39.65 39.73 39.95 39.73 39.77 40.25 40.82 41.11 41.26 41.54 42.14 43.69 44.96 46.31 47.28 48.41 49.66 51.35
40.79 32.71 33.48 34.49 36.41 38.00 38.15 37.86 38.58 37.75 38.02 33.53 36.27 35.46 39.41 38.98 36.10 36.42 37.07 37.45 37.18 38.24 38.72 39.26 39.52 38.63 38.22 39.08 39.50 39.36 39.37 40.03 40.26 40.82 41.05 40.97 40.79 42.10 42.47 42.24 43.30 42.71 42.93 43.78
39.29 33.61 34.65 32.54 35.42 36.40 35.53 38.55 39.62 38.94 39.49 39.10 38.92 37.16 41.00 42.29 36.06 34.42 37.23 37.64 37.54 39.19 39.38 39.97 40.00 39.04 39.23 39.24 38.97 38.90 39.24 39.33 39.93 39.90 39.39 39.42 38.59 37.30 36.90 38.09 38.21 38.85 38.89 39.61
36.18 35.24 32.40 29.29 33.69 32.94 30.59 36.31 38.24 39.35 40.77 40.16 36.07 40.47 38.02 37.90 37.80 36.79 36.64 37.43 39.07 39.87 40.01 40.03 39.39 39.54 38.47 38.80 39.45 39.27 38.94 38.67 37.86 36.34 35.17 35.32 35.65 35.37 34.61 34.28 34.32 34.00 34.09 34.66
32.30 32.32 33.68 31.02 32.48 24.96 34.76 37.56 41.38 39.92 41.33 42.54 42.60 43.04 43.51 41.80 43.16 44.38 40.44 39.70 39.08 38.89 39.82 39.35 38.50 38.15 38.92 38.86 38.40 37.83 37.06 35.80 34.68 34.44 34.40 34.17 34.38 33.82 33.14 32.86 32.71 32.49 32.69 34.12
35.93 31.66 27.28 26.99 28.30 32.33 32.87 33.76 37.40 37.05 37.56 43.31 42.75 44.07 43.86 40.16 36.25 37.76 39.91 40.27 41.39 41.19 40.05 39.63 38.55 38.20 37.88 37.62 36.60 34.64 33.35 33.17 33.06 32.91 32.89 32.74 32.79 29.79 30.19 28.33 28.25 32.57 32.82 32.00
35.30 34.99 29.47 27.39 25.65 24.16 34.48 39.37 41.32 42.29 33.59 43.61 43.95 43.77 43.79 40.07 36.78 42.14 40.97 38.28 38.33 38.33 37.13 37.30 37.13 36.46 35.92 34.83 34.15 32.86 31.94 31.84 31.91 32.04 32.18 31.90 30.91 29.40 29.01 29.05 28.04 29.96 31.73 30.54
29.86 30.23 26.62 27.75 26.23 29.52 35.85 35.33 42.57 31.89 34.30 44.13 44.43 44.68 44.63 40.61 44.23 45.51 39.41 36.66 36.70 36.21 35.59 34.79 34.98 34.83 33.68 32.73 31.92 31.45 30.72 31.22 31.42 30.41 28.86 26.53 26.44 25.48 25.84 24.29 23.67 24.30 25.75 28.22
31.51 30.70 29.39 30.44 29.73 27.22 33.42 38.05 36.06 41.33 43.53 37.34 44.49 45.59 44.84 46.04 45.18 38.10 37.30 34.68 34.73 33.68 33.92 33.09 32.50 31.40 30.98 31.21 32.48 31.10 30.66 29.44 26.11 25.88 25.14 23.64 21.36 25.42 23.19 22.01 18.57 20.01 21.29 21.76
29.75 34.79 32.66 33.53 33.49 33.15 40.16 41.27 39.62 40.13 40.65 38.24 41.35 41.15 45.79 44.80 43.60 35.65 33.87 33.51 33.57 33.27 32.00 31.29 30.42 28.76 27.62 25.98 28.74 29.20 27.25 25.21 23.68 22.06 19.78 19.17 21.09 22.17 21.00 21.05 19.22 21.21 19.79 20.39
32.26 36.17 34.35 33.44 37.90 33.43 34.69 37.45 40.40 35.67 36.08 35.58 35.44 36.99 40.67 43.27 42.23 34.17 34.28 33.02 32.23 29.98 28.91 26.26 26.85 25.26 23.94 22.03 27.05 28.44 26.17 23.33 22.37 21.09 20.38 20.01 21.39 20.87 20.55 22.61 21.76 20.08 18.97 18.88
31.45 33.73 33.78 33.75 31.48 32.46 33.70 36.71 36.65 35.93 34.57 34.54 33.40 34.16 37.94 37.74 35.44 33.74 32.07 31.05 30.34 28.76 25.61 26.41 25.81 24.34 22.47 20.58 20.89 18.62 21.09 22.59 23.16 22.41 21.32 20.44 19.87 19.46 20.09 20.02 20.02 21.85 18.22 20.85
22.77 22.27 30.53 32.75 24.04 24.07 33.77 32.66 35.88 35.45 35.73 34.77 33.09 32.30 31.73 34.58 33.65 32.74 30.91 30.08 27.93 25.34 23.20 22.32 20.82 20.41 17.56 16.45 16.08 11.10 12.46 19.75 22.94 21.17 20.26 19.48 19.97 17.92 18.34 20.19 20.00 30.50 30.90 31.38
MSLP
1019.87 1020.56 1020.02 1019.84 1019.76 1019.86 1019.88 1019.85 1019.61 1019.05 1018.58 1018.81 1018.46 1018.23 1018.21 1017.85 1018.07 1018.16 1018.24 1018.13 1018.10 1018.03 1017.02 1017.99 1018.11 1018.44 1018.77 1018.91 1019.20 1019.40 1019.97 1020.32 1020.88 1021.59 1022.24 1022.68 1022.77 1022.98 1023.03 1023.00 1023.12 1023.43 1023.64 1023.84
1020.16 1019.00 1018.77 1019.69 1019.81 1020.17 1020.24 1020.23 1020.04 1019.66 1019.06 1019.29 1018.88 1018.20 1017.98 1017.76 1017.48 1016.94 1017.15 1017.40 1017.22 1017.00 1017.16 1017.14 1017.38 1017.81 1017.95 1018.20 1018.44 1018.81 1019.17 1019.74 1020.13 1020.72 1021.26 1021.67 1022.08 1022.33 1022.37 1022.58 1022.86 1023.08 1023.34 1023.60
1018.48 1018.46 1018.90 1019.57 1019.84 1020.26 1020.26 1020.19 1020.39 1020.15 1019.54 1019.38 1019.44 1018.25 1017.57 1016.97 1016.40 1016.04 1015.88 1015.86 1015.91 1016.00 1016.13 1016.25 1016.61 1016.84 1017.24 1017.47 1017.50 1017.96 1018.29 1018.87 1019.50 1020.10 1020.81 1021.50 1021.86 1022.16 1022.31 1022.34 1022.41 1022.47 1022.78 1023.06
1018.44 1018.30 1018.32 1018.96 1019.07 1019.73 1020.05 1020.13 1020.48 1020.44 1020.35 1019.92 1019.43 1017.87 1016.68 1016.32 1015.87 1015.46 1014.87 1014.99 1014.92 1015.03 1014.96 1014.94 1015.48 1016.03 1016.16 1016.02 1016.71 1017.14 1017.66 1018.23 1018.63 1019.09 1019.89 1020.36 1020.81 1021.05 1021.02 1021.30 1021.53 1021.77 1021.98 1022.20
1017.23 1017.66 1018.09 1018.48 1017.78 1019.57 1019.66 1020.01 1020.59 1020.70 1020.84 1020.55 1019.81 1019.42 1016.10 1015.99 1015.68 1015.10 1013.92 1013.80 1013.77 1013.76 1013.97 1014.19 1014.42 1014.45 1014.75 1015.32 1015.68 1016.07 1016.85 1017.50 1017.91 1018.38 1018.78 1019.35 1019.78 1019.94 1020.22 1020.68 1020.88 1021.02 1021.18 1021.34
1017.28 1017.33 1017.91 1017.57 1018.21 1018.88 1019.52 1020.44 1020.83 1021.13 1021.49 1020.60 1019.50 1019.44 1015.66 1015.47 1014.79 1014.24 1013.51 1013.11 1012.72 1012.94 1013.08 1013.22 1013.21 1013.75 1014.06 1014.51 1015.07 1015.45 1016.09 1016.44 1017.20 1017.57 1017.94 1018.30 1018.58 1019.00 1019.62 1020.01 1020.37 1020.58 1020.76 1020.97
1016.98 1017.13 1017.08 1017.23 1018.27 1018.94 1019.52 1020.21 1020.73 1021.49 1021.38 1019.18 1018.57 1019.16 1014.80 1014.08 1013.39 1013.14 1012.75 1012.43 1012.13 1012.20 1012.56 1012.68 1012.92 1013.32 1013.66 1014.12 1014.31 1014.85 1015.35 1015.73 1016.14 1016.62 1017.15 1017.44 1017.75 1018.42 1018.73 1019.19 1019.65 1020.08 1020.23 1020.36
1016.64 1017.15 1016.09 1016.00 1016.16 1016.65 1017.83 1018.69 1019.17 1020.04 1020.64 1019.48 1019.40 1017.32 1013.41 1012.61 1012.06 1011.70 1011.86 1012.01 1012.04 1012.09 1011.98 1012.09 1012.14 1012.41 1012.91 1013.23 1013.60 1014.26 1014.72 1014.93 1015.46 1015.86 1016.22 1016.73 1017.30 1017.61 1017.88 1018.25 1018.70 1018.98 1019.28 1019.49
1015.25 1015.23 1015.06 1015.23 1015.89 1016.34 1017.46 1017.42 1017.60 1019.45 1020.72 1020.29 1018.32 1015.74 1013.66 1012.42 1012.03 1011.49 1011.11 1011.61 1011.64 1011.85 1011.81 1011.73 1011.91 1011.95 1012.25 1012.77 1013.05 1013.35 1013.98 1014.38 1014.78 1014.99 1015.54 1016.04 1016.50 1016.91 1017.11 1017.52 1017.89 1018.07 1018.32 1018.60
1015.17 1015.33 1014.91 1015.48 1015.78 1015.92 1015.40 1016.06 1017.74 1018.65 1019.57 1019.48 1017.17 1015.72 1012.68 1011.60 1010.83 1010.32 1010.36 1010.59 1010.82 1011.46 1011.79 1011.71 1011.78 1011.81 1012.01 1012.32 1012.62 1013.03 1013.40 1013.74 1013.98 1014.41 1014.87 1015.30 1015.66 1016.00 1016.39 1016.89 1017.09 1017.26 1017.43 1017.77
1015.24 1015.28 1015.28 1015.28 1014.27 1013.53 1014.62 1014.89 1015.60 1016.24 1017.09 1016.96 1016.32 1013.34 1011.29 1010.62 1010.20 1009.72 1009.28 1009.57 1010.48 1011.09 1011.49 1011.72 1011.97 1011.98 1012.05 1012.18 1012.55 1012.80 1013.16 1013.46 1013.77 1014.02 1014.32 1014.75 1015.10 1015.44 1015.85 1016.07 1016.16 1016.46 1016.82 1017.01
1014.93 1015.61 1015.26 1014.14 1013.79 1013.59 1013.58 1013.97 1014.93 1015.22 1015.61 1015.58 1015.00 1011.11 1009.94 1009.64 1009.41 1009.29 1009.23 1009.55 1010.03 1010.60 1011.10 1011.78 1012.06 1012.08 1012.27 1012.44 1012.67 1012.83 1013.08 1013.38 1013.66 1013.86 1014.14 1014.25 1014.40 1014.64 1014.98 1015.23 1015.40 1015.67 1015.93 1016.17
1013.94 1014.61 1014.85 1014.53 1014.61 1013.88 1012.81 1012.18 1012.29 1013.18 1013.63 1013.64 1013.83 1009.86 1009.02 1009.18 1008.94 1008.95 1009.48 1009.66 1009.85 1010.73 1011.55 1012.00 1012.32 1012.31 1012.30 1012.54 1012.81 1013.01 1013.16 1013.38 1013.72 1013.96 1014.15 1014.42 1014.69 1014.86 1014.91 1014.99 1015.16 1015.39 1015.57 1015.80
1013.38 1013.65 1013.28 1012.33 1011.21 1012.02 1012.32 1011.67 1011.70 1012.51 1013.04 1011.05 1011.17 1008.88 1009.48 1009.17 1009.16 1009.32 1009.27 1009.53 1009.77 1010.34 1011.35 1011.90 1012.19 1012.34 1012.44 1012.61 1012.76 1013.05 1013.40 1013.68 1014.04 1014.36 1014.66 1014.90 1015.13 1015.28 1015.41 1015.48 1015.59 1015.80 1015.92 1016.02
1013.56 1012.58 1012.55 1011.52 1011.48 1011.31 1010.95 1010.81 1010.92 1010.93 1010.12 1011.23 1008.27 1009.22 1008.92 1008.75 1008.86 1008.88 1008.95 1009.73 1010.42 1010.72 1011.26 1011.52 1011.66 1012.05 1012.33 1012.61 1012.87 1013.26 1013.64 1013.88 1014.21 1014.60 1014.95 1015.16 1015.32 1015.46 1015.72 1015.94 1016.11 1016.32 1016.51 1016.64
1013.55 1011.92 1012.60 1011.74 1011.65 1011.19 1010.61 1010.51 1010.15 1009.81 1009.21 1009.87 1007.95 1007.68 1007.40 1008.22 1008.46 1008.96 1008.97 1009.63 1009.98 1010.30 1010.55 1010.81 1011.20 1011.62 1012.09 1012.34 1012.73 1013.25 1013.73 1014.11 1014.40 1014.86 1015.31 1015.63 1015.91 1016.19 1016.44 1016.75 1016.86 1016.85 1016.97 1017.13
1013.76 1013.19 1012.52 1010.90 1011.11 1011.17 1010.00 1008.60 1008.54 1007.44 1006.53 1006.99 1006.57 1004.42 1006.86 1007.57 1008.05 1008.12 1008.62 1009.04 1009.04 1009.12 1009.76 1010.38 1010.83 1011.37 1011.90 1012.19 1012.36 1013.00 1013.48 1013.99 1014.36 1014.88 1015.29 1015.64 1015.92 1016.31 1016.58 1016.71 1016.92 1017.21 1017.40 1017.40
1012.97 1013.75 1013.03 1011.37 1010.86 1009.18 1007.12 1007.26 1007.12 1006.82 1005.45 1006.09 1005.62 1004.36 1005.45 1006.14 1006.08 1006.76 1007.09 1007.48 1008.18 1008.65 1009.37 1009.91 1010.62 1011.40 1011.99 1012.45 1012.84 1013.33 1013.89 1014.34 1014.76 1015.18 1015.52 1015.79 1016.14 1016.46 1016.69 1017.02 1017.24 1017.32 1017.42 1017.53
1012.35 1012.45 1013.19 1012.42 1009.35 1007.98 1006.87 1005.90 1005.14 1005.01 1002.69 1004.42 1005.39 1004.08 1004.79 1005.72 1006.65 1006.23 1005.77 1006.21 1006.68 1007.72 1008.73 1009.37 1010.26 1011.18 1011.90 1012.32 1012.80 1013.34 1014.16 1014.66 1015.04 1015.39 1015.60 1015.95 1016.20 1016.51 1016.78 1017.02 1017.34 1017.36 1017.48 1017.49
1011.10 1011.47 1011.69 1011.66 1009.20 1005.72 1003.75 1001.63 1004.15 1005.64 1003.94 1003.37 1003.03 1002.03 1003.21 1005.32 1006.53 1002.93 1005.14 1006.12 1007.20 1007.80 1008.54 1009.72 1010.83 1011.58 1011.94 1012.56 1013.01 1013.64 1014.35 1014.60 1015.08 1015.62 1015.98 1016.10 1016.25 1016.54 1016.49 1016.80 1016.84 1016.92 1017.07 1017.33
1010.18 1010.23 1010.06 1009.17 1007.88 1004.73 1001.36 1001.64 1003.19 1005.07 1000.73 999.44 1000.96 1000.34 1001.31 1003.43 1002.31 1000.94 1003.76 1005.47 1006.50 1007.92 1009.14 1010.36 1011.32 1011.87 1012.31 1012.93 1013.39 1014.07 1014.62 1014.76 1015.06 1015.24 1016.05 1016.81 1016.76 1017.19 1017.21 1017.68 1017.74 1017.84 1018.11 1017.97
1006.97 1007.83 1007.67 1007.56 1006.03 1003.45 1000.30 1001.69 1000.84 996.40 999.64 998.34 998.60 998.23 1000.24 1000.76 1001.12 1003.43 1004.05 1005.59 1006.80 1008.13 1009.84 1010.47 1011.32 1011.98 1012.74 1013.55 1014.08 1014.44 1015.01 1015.22 1016.26 1015.92 1017.08 1017.34 1017.75 1017.76 1017.99 1018.06 1018.69 1019.09 1019.12 1019.06
1005.38 1004.04 1005.29 1006.34 1002.87 1001.26 999.33 998.38 998.13 998.38 999.17 998.92 999.01 998.89 999.59 1000.59 1001.59 1002.83 1004.35 1005.85 1007.15 1008.44 1009.72 1010.75 1011.62 1012.81 1013.56 1014.10 1014.62 1015.36 1015.40 1015.78 1016.33 1017.36 1017.78 1018.14 1018.24 1018.41 1018.29 1018.37 1019.05 1019.29 1019.53 1020.02
1004.04 1003.82 1004.72 1004.82 1001.55 1000.77 1000.48 999.52 998.68 998.88 998.94 998.86 998.86 998.83 999.38 1000.02 1001.33 1002.86 1004.01 1005.43 1007.29 1009.14 1010.44 1010.84 1011.80 1013.24 1014.48 1014.91 1015.44 1015.18 1015.56 1016.30 1016.60 1017.44 1017.97 1018.16 1018.46 1018.58 1018.63 1018.72 1019.09 1019.32 1019.63 1019.74
1005.57 1005.93 1005.19 1005.00 1003.67 1002.23 1001.22 1000.60 1000.13 999.49 999.53 999.60 999.92 999.80 999.99 1000.62 1001.92 1003.00 1004.43 1006.08 1007.68 1009.25 1010.42 1011.62 1012.51 1013.58 1014.72 1015.48 1015.88 1016.28 1016.55 1016.39 1016.68 1017.51 1017.63 1018.00 1018.30 1018.63 1018.79 1019.28 1019.28 1019.22 1019.31 1019.43
1008.40 1008.39 1007.83 1005.91 1007.03 1006.88 1003.05 1001.95 1001.24 1000.49 999.94 999.88 1000.36 1000.57 1000.88 1001.36 1002.23 1003.29 1005.10 1006.07 1007.65 1009.81 1011.20 1012.03 1013.58 1014.07 1014.86 1015.62 1016.26 1017.36 1016.80 1016.73 1016.92 1017.74 1018.07 1018.51 1018.56 1018.80 1019.05 1019.30 1019.40 1019.34 1019.60 1019.73
Wind_Speed
3 7 8 5 7 2 5 4 5 3 3 4 7 12 10 12 6 8 8 9 11 13 15 8 11 11 8 8 11 14 13 13 9 6 5 4 7 5 3 5 7 7 6 7
6 19 24 5 3 8 3 2 3 4 3 4 8 14 11 8 10 9 10 10 12 12 10 9 11 11 13 14 13 13 14 15 12 9 6 4 5 3 4 3 5 6 7 7
10 2 13 8 6 8 4 6 4 5 2 3 3 13 11 8 12 9 9 11 10 15 15 13 12 15 13 15 16 15 16 15 12 13 4 3 3 2 3 3 4 7 8 8
8 4 15 14 10 10 11 7 4 4 3 5 5 9 7 6 14 10 16 13 15 13 12 13 13 13 16 18 15 15 15 15 14 15 11 13 11 10 9 8 6 6 10 10
9 12 14 13 17 14 6 7 11 1 3 5 4 5 6 2 7 10 16 16 15 13 15 14 14 17 17 15 16 15 14 14 14 13 15 12 14 10 7 4 8 10 9 12
8 4 12 10 9 15 7 5 3 3 2 12 10 10 7 8 8 9 10 12 13 11 12 15 13 11 13 12 13 13 15 16 14 15 16 17 17 15 8 8 9 7 7 7
12 10 3 6 6 6 8 9 3 6 8 13 6 8 19 6 10 11 14 13 10 10 9 12 10 10 12 12 14 13 14 16 16 16 16 18 17 14 15 12 9 8 7 7
14 13 16 15 14 11 25 17 6 9 7 5 4 12 10 13 19 17 11 11 8 9 8 10 12 11 13 13 15 14 15 16 15 15 17 14 14 11 11 11 9 9 9 9
15 18 7 11 7 15 10 16 8 5 2 2 7 9 8 10 11 11 12 10 13 9 7 8 8 9 9 10 13 15 14 14 13 15 13 13 12 13 12 12 9 10 9 8
4 12 10 14 4 4 14 13 5 1 5 6 7 7 12 6 21 19 12 13 13 8 7 6 4 5 6 7 7 8 10 14 13 11 11 11 13 13 13 8 11 12 11 9
7 3 1 12 18 24 12 16 9 7 6 6 4 10 9 19 16 18 19 10 9 9 9 6 4 1 2 3 6 6 7 8 8 8 9 8 8 8 8 11 11 11 9 8
11 0 4 18 9 14 19 13 20 8 14 4 2 13 5 10 8 4 7 8 6 6 8 6 6 5 5 5 5 7 6 7 7 7 7 8 8 10 12 12 12 10 12 11
19 7 5 6 8 4 18 24 25 23 3 18 10 17 4 5 6 8 8 8 8 7 7 6 5 6 5 5 4 4 4 5 4 4 5 5 5 6 6 6 5 6 6 8
14 12 9 14 7 6 20 25 24 25 14 24 21 28 4 5 5 5 6 7 8 10 9 7 6 6 5 5 4 2 1 1 1 1 2 3 3 3 3 3 4 4 4 4
11 22 23 24 18 8 12 26 26 24 33 20 31 20 23 12 8 8 5 5 7 8 9 8 7 7 5 4 3 1 1 2 2 3 3 2 2 3 4 5 5 5 5 5
6 6 17 23 22 22 21 20 27 28 30 25 33 25 9 12 5 3 8 9 10 12 10 9 8 7 7 6 4 3 2 3 3 4 5 5 5 6 6 5 5 5 5 5
4 10 7 18 13 8 15 30 30 32 34 34 32 42 6 10 12 14 12 12 16 16 13 10 10 9 7 6 5 5 5 5 6 7 5 5 5 5 5 5 5 5 5 3
9 9 13 10 13 26 17 5 29 33 35 31 33 25 24 16 19 17 13 17 17 11 11 10 9 7 7 5 5 6 5 6 6 6 6 5 5 6 5 5 5 4 3 4
17 10 7 9 22 14 9 10 22 28 34 29 29 32 24 7 4 13 16 14 21 16 10 10 8 7 7 8 7 8 7 6 6 5 5 4 5 5 5 5 4 4 3 2
20 18 12 13 20 30 26 33 12 14 26 25 31 33 28 11 11 26 12 10 9 9 8 10 8 6 7 6 7 8 7 7 7 6 6 6 6 6 7 6 6 3 3 3
12 10 19 20 18 12 15 13 23 20 26 29 29 33 29 19 29 21 13 9 9 8 11 9 8 8 7 7 7 8 7 7 6 5 4 3 4 4 4 3 4 3 2 4
14 9 13 14 12 19 12 19 30 36 18 1 28 34 20 30 21 8 11 12 14 15 12 10 11 9 7 7 7 8 7 5 3 6 5 5 4 3 3 6 4 4 4 5
7 13 14 13 16 4 18 16 4 8 14 9 13 10 24 22 23 15 12 14 12 14 12 9 11 10 5 4 4 8 5 6 6 6 5 4 4 4 4 6 5 4 5 5
4 5 8 4 16 11 12 6 9 4 5 5 4 5 8 22 17 12 15 15 14 11 11 7 13 11 7 3 5 6 6 6 8 8 6 4 5 5 5 5 4 5 4 4
2 5 10 14 2 4 6 13 6 3 1 4 3 1 8 10 12 14 13 12 12 12 9 10 11 11 9 6 6 3 5 7 8 7 6 6 5 5 6 4 3 4 3 4
5 2 5 6 8 10 5 9 8 7 6 5 5 2 2 8 16 14 12 13 13 13 10 10 8 10 8 7 7 2 2 4 9 8 5 4 5 4 4 5 5 14 14 14
Wind_Direction
145 202 234 201 219 174 151 168 174 219 264 195 237 250 247 260 246 242 239 228 227 226 239 207 218 211 203 197 194 199 197 202 183 183 177 192 212 215 214 203 205 199 202 200
149 215 209 185 251 222 159 205 219 297 271 171 284 267 241 237 248 230 225 226 230 235 228 220 210 204 203 206 204 201 203 203 198 200 200 193 184 210 219 193 206 202 198 202
193 324 168 183 177 202 195 175 188 205 318 220 280 272 263 241 237 239 234 225 220 222 227 225 205 207 205 209 205 203 204 202 200 202 152 109 100 120 178 208 205 208 202 207
223 182 172 181 210 199 229 169 205 218 162 226 158 279 248 237 245 236 246 225 231 226 227 225 210 206 205 214 205 206 205 203 199 191 188 202 211 216 221 215 206 201 202 208
198 192 182 193 198 189 206 159 208 244 277 339 217 274 268 254 257 246 245 240 230 223 221 224 209 209 208 209 205 201 199 202 201 192 198 200 213 220 216 190 196 206 210 212
214 192 179 195 182 179 130 92 89 72 129 254 219 216 205 211 205 240 249 248 237 224 213 225 217 210 214 206 200 197 197 204 199 197 200 204 212 214 205 205 213 215 214 216
202 193 177 160 142 144 173 158 186 198 210 245 182 199 246 231 236 240 251 248 242 235 207 214 211 200 203 191 194 192 196 206 200 199 204 212 214 212 219 216 216 213 213 215
204 211 181 194 194 175 197 185 170 194 203 258 91 233 244 210 229 243 234 252 269 255 224 213 215 206 203 200 198 196 196 207 202 201 209 210 211 214 219 216 215 220 219 221
196 226 152 190 180 160 187 208 183 100 64 50 218 282 288 250 262 261 242 233 245 246 258 231 219 210 198 194 195 195 199 206 204 206 208 209 209 213 217 216 206 218 218 218
239 231 199 186 122 246 184 176 180 130 165 245 256 264 238 234 223 230 244 223 233 229 240 235 204 207 216 206 199 193 197 204 206 202 204 209 210 212 219 207 214 215 219 210
215 194 262 163 200 191 185 193 196 180 171 192 258 254 209 216 216 232 232 207 208 214 218 210 195 125 114 175 184 189 187 185 193 189 196 199 202 203 205 215 217 220 215 203
186 107 227 223 213 228 208 205 202 212 217 223 177 258 241 235 251 286 233 204 198 199 196 185 179 163 150 151 163 188 197 196 202 198 195 202 195 195 207 216 221 210 217 214
196 193 208 172 242 274 212 208 201 212 83 215 216 257 194 225 252 230 224 208 186 174 167 174 172 181 171 170 169 178 188 213 218 208 215 226 224 213 219 224 224 223 218 223
175 202 218 233 242 122 214 215 213 206 226 234 228 247 234 240 254 253 217 204 183 169 173 185 183 192 188 180 164 159 181 185 159 159 211 238 255 269 294 322 332 331 334 327
238 228 230 234 236 247 237 217 208 205 223 217 240 236 241 263 239 226 217 161 165 180 189 197 188 185 182 182 177 104 53 67 100 101 101 81 92 82 73 64 54 46 39 35
235 240 220 243 246 243 241 229 215 217 226 231 249 245 222 218 276 213 205 191 193 199 199 198 190 174 183 176 165 137 113 110 105 89 77 64 62 61 64 58 49 54 52 52
265 236 224 234 220 225 245 217 218 218 225 217 230 234 129 192 211 217 212 204 208 202 191 191 184 183 178 170 158 155 140 130 117 124 122 116 117 112 101 98 92 82 83 87
200 265 245 259 201 227 236 228 219 220 224 220 233 239 221 213 219 233 219 201 214 195 192 187 175 168 165 144 116 113 110 116 122 118 119 121 127 126 117 105 102 105 98 82
213 182 259 277 246 263 271 213 199 208 233 228 235 244 237 215 122 255 218 213 206 191 188 183 163 151 148 147 143 126 123 125 121 131 134 136 129 121 119 113 127 121 113 117
200 212 201 235 268 238 238 233 179 187 253 221 221 235 228 172 219 244 181 178 186 170 150 144 147 135 132 142 140 134 142 139 143 154 160 162 158 156 152 160 160 154 149 157
191 197 217 230 240 256 236 164 145 185 231 228 212 227 224 201 219 235 167 167 147 146 147 132 131 145 142 141 136 131 141 154 158 136 118 79 64 65 54 54 22 35 48 72
185 184 219 218 216 256 161 145 169 215 205 211 209 223 220 218 223 178 166 151 149 144 145 150 144 142 141 147 142 146 143 111 86 88 93 79 62 73 86 91 45 36 43 52
205 194 208 208 225 321 178 195 177 197 192 230 216 227 216 221 210 170 164 153 154 153 146 141 137 124 96 82 122 137 124 124 108 93 90 98 93 76 75 89 82 77 59 50
252 130 236 148 236 226 220 264 211 192 213 206 254 202 204 214 195 171 156 151 145 145 151 133 132 134 133 112 114 113 127 130 123 122 125 103 98 92 75 75 75 85 75 74
136 158 199 252 294 337 265 242 273 213 192 151 109 195 213 153 172 157 149 147 145 146 132 146 140 140 133 119 109 100 151 144 123 121 112 116 107 100 95 81 118 109 155 130
351 313 211 210 21 314 278 345 275 218 212 191 153 125 101 168 160 145 149 145 141 138 136 120 121 128 130 124 111 75 114 143 133 125 124 120 108 110 119 127 87 66 79 77